FW8396 Weather Reports


time (UTC)temp
C
wind
direction
speed
KPH
gust
KPH
rain 1hr
cm
rain 24hr
cm
rain mn
cm
humidity
%
barometer
mb
20260505000041 25 103 6.4 12.9 0.00 0.00 0.00 70 1012.4
20260504234529 25 105 6.4 17.7 0.00 0.00 0.00 69 1012.6
20260504233031 25 220 4.8 20.9 0.00 0.00 0.00 69 1012.5
20260504231527 25 112 8.0 24.1 0.00 0.00 0.00 68 1012.8
20260504230039 25 131 8.0 20.9 0.00 0.00 0.00 68 1012.9
20260504224530 26 175 8.0 16.1 0.00 0.00 0.00 67 1013.1
20260504223029 26 111 4.8 17.7 0.00 0.00 0.00 67 1013.1
20260504221542 26 122 3.2 17.7 0.00 0.00 0.00 66 1013.3
20260504220033 26 155 4.8 14.5 0.00 0.00 0.00 64 1013.4
20260504214528 27 162 6.4 22.5 0.00 0.00 0.00 63 1013.4
20260504213033 27 167 4.8 22.5 0.00 0.00 0.00 61 1013.5
20260504211533 27 112 4.8 19.3 0.00 0.00 0.00 60 1013.8
20260504210031 28 97 4.8 20.9 0.00 0.00 0.00 58 1013.8
20260504204531 28 82 4.8 17.7 0.00 0.00 0.00 59 1014.0
20260504203043 27 163 3.2 17.7 0.00 0.00 0.00 58 1014.2
20260504201530 28 245 4.8 16.1 0.00 0.00 0.00 57 1014.5
20260504200027 28 123 6.4 17.7 0.00 0.00 0.00 56 1014.8
20260504194539 28 148 3.2 17.7 0.00 0.00 0.00 56 1014.8
20260504193030 27 109 4.8 16.1 0.00 0.00 0.00 56 1014.9
20260504191536 27 97 6.4 20.9 0.00 0.00 0.00 56 1015.0
20260504190030 28 162 4.8 16.1 0.00 0.00 0.00 55 1015.3
20260504184530 28 169 6.4 19.3 0.00 0.00 0.00 55 1015.4
20260504183030 27 103 4.8 22.5 0.00 0.00 0.00 56 1015.3
20260504181530 27 184 4.8 16.1 0.00 0.00 0.00 55 1015.7
20260504180030 27 192 6.4 24.1 0.00 0.00 0.00 56 1015.9
20260504174528 27 169 3.2 19.3 0.00 0.00 0.00 57 1016.1
20260504173034 26 153 4.8 20.9 0.00 0.00 0.00 58 1016.2
20260504171534 26 96 4.8 16.1 0.00 0.00 0.00 58 1016.4
20260504081529 17 0 0.0 0.0 0.00 0.00 0.00 74 1018.1
20260504044529 19 0 0.0 4.8 0.00 0.00 0.00 63 1020.3
20260504043028 19 136 0.0 4.8 0.00 0.00 0.00 62 1020.3
20260504041529 20 0 0.0 3.2 0.00 0.00 0.00 61 1020.5
20260504040054 20 145 0.0 4.8 0.00 0.00 0.00 60 1020.5
20260504034530 20 0 1.6 9.7 0.00 0.00 0.00 59 1020.7
20260504033028 20 188 1.6 14.5 0.00 0.00 0.00 58 1020.5
20260504031529 21 142 3.2 14.5 0.00 0.00 0.00 57 1020.4
20260504030030 21 127 3.2 12.9 0.00 0.00 0.00 57 1020.2
20260504024528 21 126 3.2 8.0 0.00 0.00 0.00 58 1020.3
20260504023029 21 173 1.6 9.7 0.00 0.00 0.00 57 1020.3
20260504021529 21 161 4.8 12.9 0.00 0.00 0.00 56 1020.0
20260504020028 21 192 4.8 16.1 0.00 0.00 0.00 55 1020.2
20260504014530 22 185 3.2 17.7 0.00 0.00 0.00 54 1020.2
20260504013029 22 124 3.2 12.9 0.00 0.00 0.00 52 1020.0
20260504011528 22 93 3.2 12.9 0.00 0.00 0.00 51 1019.9
20260504010031 23 44 1.6 12.9 0.00 0.00 0.00 50 1019.7
20260504004541 23 139 1.6 11.3 0.00 0.00 0.00 49 1019.7
20260504003027 23 125 4.8 16.1 0.00 0.00 0.00 48 1019.6
20260504001531 24 175 3.2 14.5 0.00 0.00 0.00 46 1019.4